Date,TemperatureHighF,TemperatureAvgF,TemperatureLowF,DewpointHighF,DewpointAvgF,DewpointLowF,HumidityHigh,HumidityAvg,HumidityLow,PressureMaxIn,PressureMinIn,WindSpeedMaxMPH,WindSpeedAvgMPH,GustSpeedMaxMPH,PrecipitationSumIn
2013-2-1,65.0,61.6,59.0,-99.9,-99.9,-99.9,0,0,100,30.36,30.23,12,7,14,0.00
2013-2-2,69.0,63.3,60.0,-99.9,-99.9,-99.9,0,0,100,30.25,30.17,9,6,10,0.00
2013-2-3,63.0,61.1,58.0,-99.9,-99.9,-99.9,0,0,100,30.29,30.06,18,10,20,0.00
2013-2-4,68.0,64.2,62.0,-99.9,-99.9,-99.9,0,0,100,30.03,29.83,12,7,13,0.00
2013-2-5,70.0,66.3,64.0,-99.9,-99.9,-99.9,0,0,100,29.97,29.86,13,8,15,0.00
2013-2-6,65.0,63.7,61.0,-99.9,-99.9,-99.9,0,0,100,30.01,29.82,25,16,30,0.00
2013-2-7,65.0,63.2,62.0,-99.9,-99.9,-99.9,0,0,100,29.98,29.88,17,7,19,0.00
2013-2-8,66.0,61.3,57.0,-99.9,-99.9,-99.9,0,0,100,30.17,29.99,28,14,33,0.00
2013-2-9,66.0,63.9,61.0,-99.9,-99.9,-99.9,0,0,100,30.09,29.83,19,15,22,0.00
2013-2-10,70.0,65.3,63.0,-99.9,-99.9,-99.9,0,0,100,29.92,29.79,19,13,21,0.00
2013-2-11,64.0,60.7,57.0,-99.9,-99.9,-99.9,0,0,100,29.98,29.90,29,21,34,0.00
2013-2-12,63.0,60.9,59.0,-99.9,-99.9,-99.9,0,0,100,29.96,29.80,22,12,25,0.00
2013-2-13,61.0,54.8,48.0,-99.9,-99.9,-99.9,0,0,100,30.15,29.97,24,15,30,0.00
2013-2-14,61.0,57.2,54.0,-99.9,-99.9,-99.9,0,0,100,30.15,30.05,14,10,17,0.00
2013-2-15,64.0,59.9,55.0,-99.9,-99.9,-99.9,0,0,100,30.30,30.07,26,10,30,0.00
2013-2-16,58.0,52.3,47.0,-99.9,-99.9,-99.9,0,0,100,30.45,30.28,25,14,31,0.00
2013-2-17,64.0,60.6,55.0,-99.9,-99.9,-99.9,0,0,100,30.27,30.04,21,14,26,0.00
2013-2-18,68.0,65.8,64.0,-99.9,-99.9,-99.9,0,0,100,30.02,29.87,23,17,28,0.00
2013-2-19,64.0,60.2,57.0,-99.9,-99.9,-99.9,0,0,100,30.21,30.00,24,21,30,0.00
2013-2-20,66.0,63.7,62.0,-99.9,-99.9,-99.9,0,0,100,30.06,29.76,22,17,28,0.00
2013-2-21,72.0,67.6,65.0,-99.9,-99.9,-99.9,0,0,100,29.81,29.62,21,15,27,0.00
2013-2-22,65.0,63.3,60.0,-99.9,-99.9,-99.9,0,0,100,29.93,29.80,23,14,26,0.00
2013-2-23,63.0,57.8,52.0,-99.9,-99.9,-99.9,0,0,100,30.01,29.88,23,13,25,0.00
2013-2-24,64.0,61.2,59.0,-99.9,-99.9,-99.9,0,0,100,29.91,29.65,20,14,26,0.00
2013-2-25,71.0,63.6,53.0,-99.9,-99.9,-99.9,0,0,100,29.85,29.54,33,18,41,0.00
2013-2-26,63.0,53.9,44.0,-99.9,-99.9,-99.9,0,0,100,29.98,29.86,16,10,20,0.00
2013-2-27,66.0,60.5,57.0,-99.9,-99.9,-99.9,0,0,100,30.19,29.89,20,-29,25,0.00
2013-2-28,57.0,52.7,47.0,-99.9,-99.9,-99.9,0,0,100,30.29,30.17,26,17,31,0.00